DECAYED
Showing default

SAPLING GIGANTEUM, 56213 (Decayed)

Orbit data source: Space-Track

SAPLING GIGANTEUM, 56213 was a payload satellite owned by Stanford SSI (US) in LEO that was launched on Sat, 15 Apr 2023 UTC via an FALCON 9 launch vehicle from the Air Force Western Test Range (AFWTR). Payload-class satellites include a variety of spacecraft equipped with specific instruments for various scientific and technological missions. These include communications satellites like Starlink; space stations such as the ISS; scientific satellites like the Hubble; Earth observation satellites from companies like Planet Labs, Umbra, and HawkEye 360; GPS; miniature CubeSats for education and research; and military/defense satellites.

Loading next visibility...
Identifier
56213, 2023-054AM
Orbit
Decayed
Country
Flag of USUS
Related business
Manufacturer
Stanford SSI
Mission
Decayed Amateur Technology
Bus & Motor
CUBESAT 1U, Unknown motor
Mass
1 kg wet, 1 kg dry
Launch date (UTC)
2023-04-15 (2 years ago)
Launch vehicle
FALCON 9
Launch site
Air Force Western Test Range (AFWTR)
Object type
Payload
Rocket body
Debris
Shape & HBR
Box, 0.1 m
Radar Cross Section
0.015 m², Small (<0.1 m²)

Expand to show TLE details & history
Last TLE update: 11 months ago

TLE from 11 months ago
0 SAPLING GIGANTEUM
1 56213U 23054AM  24262.55542035  .17179414  26385-5  26785-3 0  9990
2 56213  97.3186 168.2012 0010327 221.2998 138.7525 16.47925117 81024
Epoch: 2024-09-18T13:19Z
TLE epoch observation values (Epoch: 2024-09-18T13:19:48.318Z)
Latitude
-0.00009°
Longitude
-29.70416°
Altitude
153.138 km
Speed
7.811 km/s
True Right ascension
11h 12m 48s
True Declination
0° 00' 00"
Sunlit
Object was in daylight at epoch
Visualization orbit readout
Latitude
Unknown
Longitude
Unknown
Altitude
Unknown
Speed
Unknown
Apparent Right ascension
Unknown
Apparent Declination
Unknown
Sunlit
N/A
Visualization observer readout
Local Sidereal Time
16:55:18
Azimuth
Unknown
Elevation
Unknown
Doppler factor
Unknown
Orbital elements
Apogee altitude
148.332 km
Perigee altitude
134.866 km
Semi-major axis
6,519.736 km
Eccentricity
0.00103
Inclination
97.3186°
RAAN
168.2012°
Arg. of periapsis
221.2998°
True anomaly
138.83045°
Mean anomaly
138.7525°
Eccentric anomaly
138.79148°
Mean motion
4.12286 °/min
Orbital period
87.32 mins
BSTAR
0.00026785
Loading maneuver chart data...
Computing Atmospheric mass density...
Loading historical data...
Loading historical data...
Loading historical data...
Loading historical data...
Loading historical data...
Loading historical data...
Loading historical data...

Documentation

Showing up to 5 results
|